Location: Newark
(44.9333°N, 0.5667°E)
Time: 06:45:27
(UTC+00:00)

N. Korean satellite - Pass Details

Date: 22 December 2019
Orbit: 454 x 508 km, 97.2° (Epoch: 20 January)

Event Time Altitude Azimuth Distance (km) Brightness Sun altitude
Rises 16:45:31 0° 161° (SSE) 2,578 10.4 -4.8°
Reaches altitude 10° 16:47:36 10° 158° (SSE) 1,693 9.4 -5.1°
Maximum altitude 16:51:13 68° 76° (ENE) 532 6.6 -5.7°
Drops below altitude 10° 16:54:49 10° 353° (N) 1,679 9.1 -6.2°
Sets 16:56:52 0° 351° (N) 2,554 10.0 -6.6°
